Location: Bluff Heights
(33.7692°N, 118.1592°W)
Time: 13:27:08
(UTC+00:00)

Vanguard 1 Rocket - Pass Details

Date: 28 September 2021
Orbit: 650 x 4226 km, 34.3° (Epoch: 21 October)

Event Time Altitude Azimuth Distance (km) Brightness Sun altitude
Exits shadow 12:19:53 14° 230° (SW) 5,196 10.7 -18.5°
Maximum altitude 12:24:04 15° 214° (SSW) 5,488 11.0 -17.6°
Drops below altitude 10° 12:33:59 10° 185° (S) 6,744 11.7 -15.6°
Sets 12:44:12 0° 167° (SSE) 8,286 12.4 -13.5°
